Flag for Romania Weather past 2 weeks in Iasi, Romania

Now
72 °F

Passing clouds.


Feels Like: 76 °F
Forecast: 50 / 75 °F
Wind: 9 mph from South

Location: Iasi Airport

Current Time: Apr 25, 2015 at 12:49:14 PM

Latest Report: Apr 25, 2015 at 12:30 PM


Visibility: N/A

Pressure: 30.01 "Hg

Humidity: 31%

Dew point: 39 °F

Location of IasiLocation

Historic Weather in Iasi — Graph

°F

Iasi temperature yesterday

Maximum temperature yesterday: 75 °F (at 3:00 PM)
Minimum temperature yesterday: 46 °F (at 5:00 AM)
Average temperature yesterday: 63 °F

Past Weeks' High & Low Weather Summary

 TemperatureHumidityPressure
High79 °F (Apr 16, 4:00 PM)100% (Apr 18, 5:00 AM)30.36 "Hg (Apr 18, 5:00 AM)
Low36 °F (Apr 19, 5:30 AM)17% (Apr 11, 4:30 PM)29.68 "Hg (Apr 17, 5:00 PM)
Average54 °F56%30.01 "Hg
* Reported Apr 10 12:00 Noon — Apr 25 12:00 Noon, Iasi, Weather by CustomWeather, © 2015

Note: Actual official high and low records may vary slightly from our data, if they occured in-between our weather recording intervals... More about our weather records

Advertising

Iasi weather history for previous 24 hours

 ConditionsComfort  
Time TempWeatherWind HumidityBarometerVisibility
12:00 PM
Sat, Apr 25
72 °FPassing clouds.10 mph29%30.01 "HgN/A
11:30 AM70 °FPassing clouds.9 mph35%30.01 "HgN/A
11:00 AM66 °FPassing clouds.6 mph40%30.01 "HgN/A
10:30 AM66 °FPassing clouds.5 mph43%30.01 "HgN/A
10:00 AM63 °FSunny.2 mph49%30.01 "Hg10 mi
9:30 AM59 °FPassing clouds.3 mph55%30.01 "HgN/A
9:00 AM57 °FPassing clouds.3 mph59%30.01 "HgN/A
8:30 AM55 °FSunny.8 mph63%30.01 "Hg10 mi
8:00 AM52 °FSunny.7 mph72%30.01 "Hg10 mi
7:30 AM50 °FSunny.7 mph71%30.01 "Hg10 mi
7:00 AM48 °FClear.7 mph76%30.01 "Hg10 mi
6:30 AM46 °FClear.8 mph82%30.01 "Hg10 mi
6:00 AM48 °FClear.8 mph76%29.98 "Hg10 mi
5:30 AM48 °FClear.8 mph76%29.98 "Hg10 mi
5:00 AM48 °FClear.8 mph76%29.98 "Hg10 mi
4:00 AM50 °FClear.7 mph67%29.98 "Hg10 mi
3:00 AM52 °FClear.9 mph58%29.98 "Hg10 mi
2:00 AM54 °FClear.9 mph51%29.98 "Hg10 mi
1:00 AM61 °FClear.6 mph36%29.98 "Hg10 mi
12:00 AM61 °FClear.6 mph36%29.98 "Hg10 mi
11:00 PM
Fri, Apr 24
61 °FClear.6 mph36%29.98 "Hg10 mi
10:00 PM64 °FClear.5 mph32%29.98 "Hg10 mi
9:00 PM66 °FSunny.5 mph32%29.95 "Hg10 mi
8:30 PM68 °FSunny.5 mph30%29.95 "Hg10 mi
8:00 PM70 °FSunny.5 mph27%29.95 "Hg10 mi
7:30 PM72 °FSunny.6 mph27%29.92 "Hg10 mi
7:00 PM72 °FPassing clouds.5 mph27%29.95 "HgN/A
6:30 PM73 °FPassing clouds.6 mph23%29.95 "HgN/A
6:00 PM73 °FPassing clouds.6 mph23%29.95 "HgN/A
5:30 PM73 °FPassing clouds.8 mph25%29.95 "HgN/A
5:00 PM73 °FPassing clouds.5 mph25%29.95 "HgN/A
4:30 PM73 °FSunny.3 mph29%29.98 "Hg10 mi
4:00 PM75 °FPassing clouds.9 mph25%29.98 "HgN/A
3:30 PM73 °FPassing clouds.6 mph25%29.98 "HgN/A
3:00 PM75 °FSunny.3 mph25%29.98 "Hg10 mi
2:30 PM72 °FPassing clouds.8 mph27%30.01 "HgN/A
2:00 PM72 °FPassing clouds.7 mph29%30.01 "HgN/A
1:30 PM72 °FSunny.5 mph27%30.01 "Hg10 mi
1:00 PM70 °FPassing clouds.6 mph29%30.01 "HgN/A
12:30 PM70 °FSunny.2 mph29%30.04 "Hg10 mi
12:00 PM70 °FSunny.2 mph33%30.04 "Hg10 mi
Weather by CustomWeather, © 2015

See weather overviewHow to use our weather pages